Location: Hebron
(33.0265°N, 96.8636°W)
Time: 13:05:52
(UTC+00:00)

Cosmos 2297 Rocket - Pass Details

Date: 08 December 2021
Orbit: 838 x 845 km, 71.0° (Epoch: 23 January)

Event Time Altitude Azimuth Distance (km) Brightness Sun altitude
Rises 12:27:45 0° 351° (N) 3,404 5.1 -10.5°
Reaches altitude 10° 12:30:34 10° 4° (N) 2,467 4.5 -10.0°
Maximum altitude 12:35:22 28° 62° (ENE) 1,545 4.1 -9.1°
Drops below altitude 10° 12:40:08 10° 120° (ESE) 2,459 6.3 -8.1°
Sets 12:42:55 0° 131° (SE) 3,390 7.0 -7.6°
